• In Hungary
  • List of Countries
  • For 7 days
  • Water Temperature
  • Satellite Maps
  • Weather Map
  • News
  • Weather Widgets
  • user-avatar
    Login

    Hourly Weather Zubrilovka

    Today, 21 September, Friday

    Time Temperature Precipitation Wind Pressure Humidity
    00:00 +16°C° 0.1 mm 3 mps 740 mmHg 94%
    01:00 +14°C° 0 mm 3 mps 740 mmHg 94%
    02:00 +14°C° 0 mm 3 mps 741 mmHg 94%
    03:00 +13°C° 0 mm 4 mps 741 mmHg 95%
    04:00 +13°C° 0 mm 4 mps 741 mmHg 95%
    05:00 +13°C° 0 mm 4 mps 742 mmHg 95%
    06:00 +12°C° 0 mm 4 mps 742 mmHg 95%
    07:00 +13°C° 0 mm 5 mps 743 mmHg 91%
    08:00 +14°C° 0 mm 5 mps 743 mmHg 87%
    09:00 +15°C° 0 mm 5 mps 744 mmHg 84%
    10:00 +15°C° 0 mm 5 mps 744 mmHg 82%
    11:00 +15°C° 0 mm 5 mps 745 mmHg 81%
    12:00 +17°C° 0 mm 4 mps 745 mmHg 79%
    13:00 +17°C° 0 mm 4 mps 745 mmHg 77%
    14:00 +18°C° 0 mm 4 mps 745 mmHg 74%
    15:00 +18°C° 0 mm 4 mps 746 mmHg 72%
    16:00 +17°C° 0 mm 3 mps 746 mmHg 76%
    17:00 +16°C° 0 mm 2 mps 746 mmHg 81%
    18:00 +16°C° 0 mm 2 mps 746 mmHg 86%
    19:00 +15°C° 0 mm 2 mps 747 mmHg 88%
    20:00 +14°C° 0 mm 1 mps 747 mmHg 89%
    21:00 +14°C° 0 mm 1 mps 747 mmHg 91%
    22:00 +14°C° 0 mm 1 mps 747 mmHg 91%
    23:00 +14°C° 0 mm 1 mps 748 mmHg 91%

    Tomorrow, 22 September, Saturday

    Time Temperature Precipitation Wind Pressure Humidity
    00:00 +13°C° 0 mm 1 mps 748 mmHg 92%
    01:00 +13°C° 0 mm 1 mps 748 mmHg 92%
    02:00 +13°C° 0 mm 1 mps 748 mmHg 92%
    03:00 +13°C° 0 mm 1 mps 748 mmHg 92%
    04:00 +13°C° 0 mm 1 mps 748 mmHg 92%
    05:00 +13°C° 0 mm 1 mps 748 mmHg 92%
    06:00 +13°C° 0 mm 1 mps 749 mmHg 92%
    07:00 +15°C° 0 mm 1 mps 749 mmHg 86%
    08:00 +18°C° 0 mm 1 mps 749 mmHg 79%
    09:00 +18°C° 0 mm 2 mps 749 mmHg 73%
    10:00 +20°C° 0 mm 2 mps 749 mmHg 68%
    11:00 +21°C° 0 mm 2 mps 749 mmHg 63%
    12:00 +23°C° 0 mm 2 mps 749 mmHg 58%
    13:00 +24°C° 0 mm 2 mps 749 mmHg 57%
    14:00 +24°C° 0 mm 2 mps 748 mmHg 56%
    15:00 +24°C° 0 mm 2 mps 748 mmHg 54%
    16:00 +23°C° 0 mm 2 mps 748 mmHg 59%
    17:00 +20°C° 0 mm 2 mps 748 mmHg 65%
    18:00 +20°C° 0 mm 1 mps 748 mmHg 70%
    19:00 +18°C° 0 mm 2 mps 748 mmHg 73%
    20:00 +17°C° 0 mm 2 mps 748 mmHg 75%
    21:00 +17°C° 0 mm 2 mps 748 mmHg 77%
    22:00 +16°C° 0 mm 2 mps 748 mmHg 78%
    23:00 +16°C° 0 mm 2 mps 747 mmHg 79%

    Day after tomorrow, 23 September, Sunday

    Time Temperature Precipitation Wind Pressure Humidity
    00:00 +16°C° 0 mm 2 mps 747 mmHg 80%
    01:00 +15°C° 0 mm 2 mps 747 mmHg 81%
    02:00 +15°C° 0 mm 2 mps 747 mmHg 82%
    03:00 +15°C° 0 mm 2 mps 747 mmHg 83%
    04:00 +14°C° 0 mm 2 mps 747 mmHg 84%
    05:00 +14°C° 0 mm 2 mps 747 mmHg 85%
    06:00 +14°C° 0 mm 2 mps 746 mmHg 86%
    07:00 +16°C° 0 mm 3 mps 746 mmHg 78%
    08:00 +17°C° 0 mm 4 mps 746 mmHg 71%
    09:00 +19°C° 0 mm 4 mps 746 mmHg 63%
    10:00 +20°C° 0 mm 5 mps 746 mmHg 59%
    11:00 +21°C° 0 mm 5 mps 745 mmHg 54%
    12:00 +23°C° 0 mm 6 mps 745 mmHg 50%
    13:00 +23°C° 0 mm 6 mps 744 mmHg 49%
    14:00 +23°C° 0 mm 6 mps 744 mmHg 48%
    15:00 +23°C° 0 mm 6 mps 744 mmHg 46%
    16:00 +21°C° 0 mm 5 mps 743 mmHg 49%
    17:00 +20°C° 0 mm 5 mps 742 mmHg 52%
    18:00 +18°C° 0 mm 4 mps 742 mmHg 55%
    19:00 +18°C° 0 mm 4 mps 742 mmHg 51%
    20:00 +17°C° 0 mm 4 mps 741 mmHg 48%
    21:00 +15°C° 0 mm 4 mps 741 mmHg 44%
    22:00 +15°C° 0 mm 4 mps 740 mmHg 41%
    23:00 +14°C° 0 mm 5 mps 739 mmHg 39%

    24 September, Monday

    Time Temperature Precipitation Wind Pressure Humidity
    00:00 +14°C° 0 mm 5 mps 739 mmHg 36%
    01:00 +14°C° 0 mm 5 mps 738 mmHg 38%
    02:00 +14°C° 0 mm 5 mps 738 mmHg 40%
    03:00 +13°C° 0 mm 5 mps 737 mmHg 42%
    04:00 +13°C° 0.2 mm 5 mps 737 mmHg 48%
    05:00 +13°C° 0.2 mm 4 mps 736 mmHg 54%
    06:00 +13°C° 0.2 mm 4 mps 736 mmHg 59%
    07:00 +13°C° 2.2 mm 5 mps 736 mmHg 69%
    08:00 +12°C° 2.2 mm 5 mps 736 mmHg 78%
    09:00 +10°C° 2.2 mm 5 mps 736 mmHg 87%
    10:00 +10°C° 1.2 mm 6 mps 737 mmHg 84%
    11:00 +10°C° 1.2 mm 7 mps 737 mmHg 82%
    12:00 +10°C° 1.2 mm 7 mps 737 mmHg 79%
    13:00 +10°C° 0 mm 7 mps 738 mmHg 75%
    14:00 +11°C° 0 mm 7 mps 738 mmHg 71%
    15:00 +11°C° 0 mm 7 mps 739 mmHg 68%
    16:00 +11°C° 0 mm 6 mps 739 mmHg 71%
    17:00 +10°C° 0 mm 5 mps 739 mmHg 73%
    18:00 +11°C° 0 mm 3 mps 740 mmHg 76%
    19:00 +10°C° 0 mm 3 mps 740 mmHg 79%
    20:00 +10°C° 0 mm 2 mps 740 mmHg 82%
    21:00 +9°C° 0 mm 2 mps 740 mmHg 84%
    22:00 +9°C° 0 mm 2 mps 740 mmHg 84%
    23:00 +9°C° 0 mm 2 mps 740 mmHg 84%

    25 September, Tuesday

    Time Temperature Precipitation Wind Pressure Humidity
    00:00 +8°C° 0 mm 2 mps 740 mmHg 84%
    01:00 +8°C° 0 mm 2 mps 739 mmHg 83%
    02:00 +8°C° 0 mm 2 mps 739 mmHg 82%
    03:00 +8°C° 0 mm 3 mps 739 mmHg 81%
    04:00 +8°C° 0.1 mm 3 mps 738 mmHg 80%
    05:00 +7°C° 0.1 mm 4 mps 738 mmHg 79%
    06:00 +8°C° 0.1 mm 4 mps 737 mmHg 79%
    07:00 +8°C° 0.6 mm 5 mps 737 mmHg 80%
    08:00 +8°C° 0.6 mm 7 mps 737 mmHg 82%
    09:00 +9°C° 0.6 mm 8 mps 736 mmHg 84%
    10:00 +9°C° 0.7 mm 8 mps 736 mmHg 83%
    11:00 +9°C° 0.7 mm 8 mps 736 mmHg 83%
    12:00 +10°C° 0.7 mm 8 mps 735 mmHg 83%
    13:00 +10°C° 0.1 mm 8 mps 735 mmHg 81%
    14:00 +11°C° 0.1 mm 7 mps 735 mmHg 80%
    15:00 +11°C° 0.1 mm 6 mps 735 mmHg 78%
    16:00 +11°C° 0.1 mm 6 mps 735 mmHg 77%
    17:00 +10°C° 0.1 mm 6 mps 735 mmHg 77%
    18:00 +10°C° 0.1 mm 5 mps 735 mmHg 76%
    19:00 +9°C° 0 mm 6 mps 735 mmHg 76%
    20:00 +9°C° 0 mm 6 mps 735 mmHg 77%
    21:00 +8°C° 0 mm 6 mps 735 mmHg 77%
    22:00 +8°C° 0 mm 6 mps 735 mmHg 77%
    23:00 +8°C° 0 mm 7 mps 735 mmHg 76%

    26 September, Wednesday

    Time Temperature Precipitation Wind Pressure Humidity
    00:00 +6°C° 0 mm 7 mps 735 mmHg 76%
    01:00 +6°C° 0 mm 7 mps 735 mmHg 77%
    02:00 +6°C° 0 mm 7 mps 735 mmHg 77%
    03:00 +5°C° 0 mm 8 mps 735 mmHg 78%
    04:00 +5°C° 0 mm 8 mps 736 mmHg 78%
    05:00 +5°C° 0 mm 8 mps 736 mmHg 78%
    06:00 +6°C° 0 mm 8 mps 736 mmHg 77%
    07:00 +6°C° 0 mm 8 mps 737 mmHg 76%
    08:00 +7°C° 0 mm 8 mps 737 mmHg 74%
    09:00 +7°C° 0 mm 8 mps 738 mmHg 73%
    10:00 +7°C° 0 mm 8 mps 738 mmHg 72%
    11:00 +7°C° 0 mm 8 mps 739 mmHg 71%
    12:00 +9°C° 0 mm 8 mps 740 mmHg 70%
    13:00 +9°C° 0.1 mm 7 mps 740 mmHg 70%
    14:00 +8°C° 0.1 mm 7 mps 741 mmHg 70%
    15:00 +8°C° 0.1 mm 7 mps 741 mmHg 71%
    16:00 +8°C° 0 mm 6 mps 741 mmHg 72%
    17:00 +7°C° 0 mm 5 mps 742 mmHg 73%
    18:00 +6°C° 0 mm 4 mps 742 mmHg 74%
    19:00 +6°C° 0 mm 4 mps 743 mmHg 75%
    20:00 +5°C° 0 mm 4 mps 743 mmHg 76%
    21:00 +5°C° 0 mm 4 mps 743 mmHg 77%
    22:00 +4°C° 0 mm 3 mps 743 mmHg 78%
    23:00 +4°C° 0 mm 3 mps 744 mmHg 80%
    Show more